Home   Weather   Cahul   Past weeks

Flag for Moldova Past Weather in Cahul, Moldova — Yesterday and Last 2 Weeks

Now
20 °F

Overcast.


Feels Like: 14 °F
Forecast: 8 / 23 °F
Wind: 5 mph from North

Location: Galati

Current Time: Jan 19, 2017 at 2:36:40 am

Latest Report: Jan 19, 2017 at 1:00 am


Visibility: 6 mi

Pressure: 30.64 "Hg

Humidity: 92%

Dew Point: 18 °F

Location of CahulLocation

Past Weather in Cahul — Graph

°F

Cahul Temperature Yesterday

Maximum temperature yesterday: 28 °F (at 2:00 pm)
Minimum temperature yesterday: 21 °F (at 11:00 pm)
Average temperature yesterday: 25 °F

High & Low Weather Summary for the Past Weeks

 TemperatureHumidityPressure
High44 °F (Jan 14, 12:00 pm)99% (Jan 16, 2:00 pm)30.66 "Hg (Jan 16, 2:00 pm)
Low5 °F (Jan 10, 12:00 am)48% (Jan 4, 4:00 pm)29.54 "Hg (Jan 14, 8:00 am)
Average22 °F83%30.06 "Hg
* Reported Jan 4 1:00 am — Jan 19 1:00 am, Cahul, Weather by CustomWeather, © 2017

Note: Actual official high and low records may vary slightly from our data, if they occured in-between our weather recording intervals... More about our weather records

Advertising

Cahul Weather History for the Previous 24 Hours

Scroll right to see more
 ConditionsComfort  
Time TempWeatherWind HumidityBarometerVisibility
1:00 am
Thu, Jan 19
20 °FOvercast.5 mph92%30.64 "Hg6 mi
12:00 am20 °FOvercast.3 mph90%30.65 "Hg6 mi
11:00 pm
Wed, Jan 18
21 °FPassing clouds.5 mph89%30.66 "Hg6 mi
10:00 pm22 °FClear.5 mph86%30.64 "Hg6 mi
9:00 pm22 °FClear.5 mph84%30.63 "Hg6 mi
8:00 pm23 °FPassing clouds.3 mph81%30.62 "Hg6 mi
7:00 pm24 °FPassing clouds.5 mph80%30.60 "Hg6 mi
6:00 pm25 °FPassing clouds.5 mph78%30.59 "Hg6 mi
5:00 pm26 °FPassing clouds.6 mph77%30.58 "Hg6 mi
4:00 pm28 °FScattered clouds.5 mph74%30.57 "Hg6 mi
3:00 pm28 °FScattered clouds.6 mph73%30.56 "Hg6 mi
2:00 pm28 °FScattered clouds.6 mph73%30.55 "Hg6 mi
1:00 pm28 °FScattered clouds.6 mph76%30.55 "Hg6 mi
12:00 pm26 °FScattered clouds.7 mph76%30.56 "Hg6 mi
11:00 am25 °FScattered clouds.6 mph78%30.55 "Hg6 mi
10:00 am23 °FFog.6 mph81%30.54 "Hg2 mi
9:00 am22 °FFog.6 mph84%30.53 "Hg2 mi
8:00 am22 °FScattered clouds.6 mph83%30.49 "Hg6 mi
7:00 am23 °FPassing clouds.6 mph83%30.48 "Hg6 mi
6:00 am25 °FOvercast.6 mph81%30.47 "Hg6 mi
5:00 am26 °FOvercast.6 mph78%30.46 "Hg6 mi
4:00 am26 °FOvercast.7 mph77%30.46 "Hg6 mi
3:00 am26 °FOvercast.6 mph80%30.46 "Hg6 mi
2:00 am26 °FPassing clouds.6 mph79%30.44 "Hg6 mi
Weather by CustomWeather, © 2017

See weather overviewHow to use our weather pages